[[{"header":{"parameterUnit":"m.s-1","parameterCategory":1,"la1":30.2991,"la2":30.254,"lo1":-89.0895,"lo2":-89.0444,"dy":0.0017,"dx":0.0017,"nx":28,"ny":28,"refTime":"2025-08-29T03:00:00:Z","depth":0,"parameterNumber":2,"parameterNumberName":"U-component_of_WINDS"},"data":[0,0,0,0,0,0,0,0,0,0,0,0,0,0,0,0,0,0,0,0,0,0,0,0,0,0,0,0,0,0,0,0,0,0,0,0,0,0,0,0,0,0,0,0,0,0,0,0,0,0,0,0,0,0,0,0,0,0,3.151,3.151,0,3.1484,3.1483,3.1483,3.1389,3.1387,3.1385,3.1383,3.1358,3.1359,3.136,0,0,0,0,0,0,0,0,0,0,0,0,0,3.1481,3.1482,3.151,3.151,3.1509,3.1484,3.1483,3.1483,3.1389,3.1387,3.1384,3.1382,3.1357,3.1359,3.136,0,0,0,0,0,0,0,0,0,0,0,0,0,3.1478,3.1482,3.151,3.146,3.1455,3.1484,3.1483,3.1483,3.139,3.1387,3.1384,3.1381,3.1357,3.1359,3.1361,3.1437,0,0,3.1367,3.1367,0,0,0,0,0,0,0,0,3.1478,3.1479,3.1467,3.1463,3.1458,3.1436,3.1464,3.1467,3.1391,3.1415,3.1383,3.1379,3.1387,3.1386,3.1388,3.1435,3.1434,3.1367,3.1368,3.1369,3.1369,0,0,0,0,0,0,0,3.1479,3.148,3.1499,3.1467,3.1461,3.1439,3.1435,3.1464,3.1419,3.1412,3.1405,3.1404,3.1383,3.1386,3.1387,3.1434,3.1367,3.1368,3.137,3.137,3.1541,3.1544,0,0,0,0,0,0,3.1486,3.1481,3.15,3.1499,3.146,3.1442,3.1437,3.1446,3.1418,3.1411,3.1406,3.1399,3.1384,3.1384,3.1385,3.1471,3.1369,3.1371,3.1372,3.1537,3.1542,3.1545,0,0,0,0,0,0,3.1486,3.1489,3.1501,3.1488,3.1488,3.1446,3.1457,3.1448,3.145,3.1414,3.1405,3.1417,3.1382,3.1383,3.1424,3.1468,3.1371,3.1373,3.1534,3.1539,3.1543,3.1643,0,0,0,0,0,0,3.1485,3.1489,3.1517,3.1489,3.1489,3.154,3.1459,3.1449,3.1454,3.1444,3.1422,3.1415,3.1379,3.1422,3.1426,3.1469,3.1375,3.1529,3.1536,3.1542,3.1636,3.1651,3.1664,0,0,0,0,0,3.1485,3.1547,3.1519,3.1522,3.1523,3.1543,3.1543,3.15,3.1458,3.1486,3.1462,3.1416,3.1464,3.1427,3.1431,3.1476,3.1526,3.1534,3.1541,3.1629,3.1648,3.1664,0,0,0,0,0,0,3.1582,3.1542,3.1511,3.1566,3.1559,3.1527,3.1561,3.1521,3.1526,3.1517,3.1465,3.146,3.1509,3.1497,3.1456,3.1547,3.1487,3.1496,3.1553,3.157,3.1584,3.1585,3.1376,0,0,0,0,0,3.161,3.1629,3.1594,3.1646,3.1644,3.1603,3.1611,3.1578,3.1568,3.1565,3.1544,3.1537,3.155,3.156,3.157,3.1634,3.1627,3.1667,3.1682,3.1693,3.1701,3.1732,3.1749,3.157,3.157,3.157,0,0,3.1668,3.1649,3.1664,3.1665,3.1655,3.1676,3.1601,3.1627,3.1642,3.1569,3.1605,3.1591,3.1579,3.1632,3.1654,3.1623,3.1749,3.1703,3.1713,3.1713,3.1742,3.1759,3.1774,3.1575,3.1574,3.1573,0,0,3.1783,3.1771,3.1812,3.1804,3.179,3.1763,3.1773,3.1747,3.1734,3.1771,3.1716,3.1734,3.1758,3.1751,3.1751,3.1864,3.1821,3.187,3.1943,3.1974,3.1988,3.2,3.2039,3.2053,3.1878,3.1878,3.1878,0,3.1857,3.1885,3.1839,3.1867,3.1869,3.1804,3.1845,3.1839,3.183,3.1833,3.1799,3.1826,3.1815,3.1864,3.1891,3.1894,3.1903,3.1871,3.199,3.2002,3.2012,3.2048,3.2063,3.1884,3.1883,3.1882,3.1882,0,3.1975,3.1996,3.2031,3.2022,3.2028,3.2064,3.2022,3.2034,3.2002,3.1979,3.2016,3.1999,3.2004,3.2014,3.1984,3.2059,3.204,3.1999,3.1937,3.2036,3.2069,3.2082,3.1892,3.189,3.1888,3.1887,0,0,3.215,3.2115,3.2128,3.2122,3.2102,3.2118,3.215,3.2154,3.2164,3.2161,3.2186,3.2208,3.2169,3.2169,3.2137,3.2165,3.2254,3.212,3.2119,3.2144,3.2334,3.2363,3.238,3.2226,3.2229,3.2231,3.2334,0,3.2257,3.2309,3.2268,3.2327,3.2345,3.2283,3.2311,3.2302,3.2282,3.2294,3.2272,3.2287,3.2236,3.2236,3.2261,3.2238,3.2291,3.223,3.2248,3.2249,3.225,3.2398,3.2429,3.2527,3.2347,3.2349,3.2351,0,3.2389,3.239,3.245,3.2425,3.2431,3.2457,3.2456,3.247,3.2459,3.2441,3.2442,3.2402,3.2432,3.2374,3.2414,3.2373,3.2378,3.2369,3.2371,3.2369,3.2304,3.2397,3.2558,3.2572,3.2371,3.2369,3.2368,0,3.2507,3.2524,3.2561,3.2559,3.2532,3.2551,3.254,3.2526,3.253,3.2531,3.2533,3.2538,3.254,3.2545,3.2508,3.2469,3.2552,3.2491,3.2538,3.2539,3.2556,3.2555,3.2717,3.2564,3.2564,3.2564,3.2563,0,3.263,3.2669,3.2614,3.2637,3.2679,3.2632,3.2675,3.2658,3.2646,3.2664,3.2613,3.2632,3.2583,3.2597,3.2568,3.2605,3.2607,3.2593,3.2585,3.2597,3.2598,3.2597,3.2589,3.2568,3.2567,3.2566,3.2565,0,3.2768,3.2733,3.277,3.274,3.2734,3.2766,3.2741,3.2761,3.2737,3.2762,3.2765,3.2728,3.2741,3.2705,3.2714,3.2695,3.2747,3.2728,3.275,3.2743,3.2791,3.2787,3.2957,3.2976,3.2813,3.2815,3.2816,0,3.2848,3.2876,3.2849,3.2858,3.285,3.2864,3.2868,3.2824,3.2831,3.282,3.2841,3.285,3.2855,3.288,3.2854,3.286,3.284,3.29,3.2841,3.2851,3.2838,3.2836,3.2838,3.2911,3.2913,3.2915,3.2916,0,3.2992,3.2973,3.298,3.2982,3.2988,3.2988,3.2984,3.2994,3.2946,3.2957,3.2969,3.2973,3.2981,3.2991,3.2991,3.298,3.294,3.2935,3.2946,3.2957,3.2967,3.296,3.278,3.2931,3.2929,3.2928,3.2927,3.2927,3.3101,3.3123,3.3107,3.3117,3.3109,3.3106,3.3123,3.3101,3.3111,3.3113,3.3087,3.3105,3.3093,3.3089,3.3083,3.3096,3.3069,3.3085,3.3089,3.3093,3.31,3.2967,3.3097,3.3096,3.3096,3.3095,3.3095,0,3.3241,3.3228,3.3237,3.3232,3.324,3.3202,3.3195,3.3204,3.322,3.3212,3.3217,3.3232,3.3241,3.3216,3.3221,3.3237,3.3218,3.3239,3.3236,3.3234,3.3125,3.3114,3.3254,3.3254,3.3254,3.3254,3.3254,3.3254,3.3314,3.3348,3.3327,3.3356,3.3343,3.3359,3.3358,3.3356,3.3348,3.3366,3.3373,3.3356,3.3341,3.3345,3.3351,3.3344,3.3347,3.3374,3.336,3.3258,3.3242,3.3227,3.3217,3.3376,3.3376,3.3468,3.3469,3.3469]},{"header":{"parameterUnit":"m.s-1","parameterCategory":1,"la1":30.2991,"la2":30.254,"lo1":-89.0895,"lo2":-89.0444,"dy":0.0017,"dx":0.0017,"nx":28,"ny":28,"refTime":"2025-08-29T03:00:00:Z","depth":0,"parameterNumber":3,"parameterNumberName":"V-component_of_WINDS"},"data":[0,0,0,0,0,0,0,0,0,0,0,0,0,0,0,0,0,0,0,0,0,0,0,0,0,0,0,0,0,0,0,0,0,0,0,0,0,0,0,0,0,0,0,0,0,0,0,0,0,0,0,0,0,0,0,0,0,0,1.208,1.2083,0,1.2319,1.2321,1.2324,1.2407,1.2406,1.2405,1.2404,1.2649,1.2656,1.2663,0,0,0,0,0,0,0,0,0,0,0,0,0,1.1695,1.1702,1.208,1.2083,1.2086,1.2318,1.2322,1.2325,1.2407,1.2406,1.2404,1.2403,1.2646,1.2655,1.2664,0,0,0,0,0,0,0,0,0,0,0,0,0,1.1891,1.1704,1.208,1.2155,1.2164,1.2318,1.2322,1.2326,1.2407,1.2406,1.2404,1.2403,1.2643,1.2654,1.2665,1.2761,0,0,1.2699,1.2704,0,0,0,0,0,0,0,0,1.188,1.1905,1.2141,1.215,1.216,1.2331,1.2276,1.2472,1.2407,1.2315,1.2404,1.2402,1.2544,1.2563,1.2611,1.2773,1.2783,1.27,1.2707,1.2711,1.2715,0,0,0,0,0,0,0,1.1866,1.1895,1.2175,1.2144,1.2156,1.2177,1.2203,1.2313,1.2434,1.2323,1.2329,1.2356,1.2549,1.26,1.2618,1.2787,1.27,1.2709,1.2716,1.2721,1.304,1.3041,0,0,0,0,0,0,1.184,1.1883,1.2167,1.2182,1.2014,1.2185,1.2214,1.2278,1.2434,1.2456,1.2357,1.2359,1.2582,1.2605,1.2627,1.275,1.2711,1.2722,1.2728,1.3038,1.304,1.3042,0,0,0,0,0,0,1.1831,1.1864,1.2157,1.2035,1.2073,1.2193,1.2264,1.2283,1.2335,1.246,1.2482,1.2387,1.2582,1.2611,1.2727,1.276,1.2727,1.2737,1.3036,1.3038,1.3041,1.2997,0,0,0,0,0,0,1.182,1.1861,1.1899,1.2035,1.208,1.2254,1.2266,1.2289,1.2353,1.2358,1.2494,1.2515,1.2583,1.271,1.2738,1.2774,1.2745,1.3033,1.3037,1.304,1.2997,1.2998,1.3,0,0,0,0,0,1.1806,1.1877,1.19,1.1934,1.213,1.2256,1.2282,1.2359,1.2356,1.2395,1.2475,1.251,1.2751,1.2721,1.2754,1.2794,1.3032,1.3036,1.304,1.2996,1.2998,1.3,0,0,0,0,0,0,1.1743,1.1897,1.1924,1.2041,1.2135,1.2269,1.2322,1.2359,1.2455,1.2456,1.2547,1.2577,1.2686,1.2752,1.2716,1.2895,1.2893,1.2904,1.2849,1.2852,1.2853,1.2836,1.2755,0,0,0,0,0,1.1743,1.1832,1.1962,1.2053,1.2098,1.2201,1.2259,1.231,1.2411,1.2451,1.254,1.2636,1.2734,1.2796,1.2893,1.3005,1.3036,1.3049,1.305,1.3051,1.306,1.3125,1.3132,1.3055,1.3055,1.3055,0,0,1.1743,1.1838,1.1889,1.2042,1.2121,1.2212,1.2234,1.2329,1.2398,1.2466,1.2581,1.2649,1.2763,1.2878,1.2933,1.2935,1.3087,1.3056,1.3056,1.3065,1.3129,1.3137,1.3143,1.3058,1.3058,1.3057,0,0,1.1791,1.1872,1.1957,1.2034,1.2152,1.222,1.224,1.2369,1.2417,1.2534,1.2587,1.2669,1.2835,1.2914,1.2975,1.3051,1.3087,1.3079,1.3089,1.3151,1.3157,1.3163,1.319,1.3199,1.3087,1.3087,1.3087,0,1.1777,1.1916,1.1995,1.2088,1.2154,1.2218,1.2305,1.2376,1.252,1.2564,1.2564,1.2774,1.2855,1.2989,1.3007,1.3054,1.3081,1.3065,1.3149,1.3156,1.3163,1.319,1.32,1.3086,1.3086,1.3086,1.3086,0,1.1893,1.1989,1.2043,1.2179,1.2251,1.234,1.2433,1.2495,1.2539,1.2607,1.2725,1.2824,1.2942,1.2977,1.3022,1.3118,1.3116,1.3131,1.3132,1.3167,1.3194,1.3206,1.3083,1.3084,1.3084,1.3085,0,0,1.1911,1.2088,1.2107,1.217,1.2304,1.2379,1.247,1.2585,1.2637,1.2733,1.2813,1.2951,1.2966,1.3036,1.3089,1.3143,1.3197,1.3153,1.3157,1.3159,1.331,1.3298,1.3309,1.3221,1.3223,1.3225,1.3301,0,1.1977,1.2143,1.2216,1.235,1.2438,1.25,1.2579,1.267,1.2735,1.282,1.2892,1.2989,1.3001,1.3044,1.31,1.3179,1.3229,1.3174,1.3297,1.33,1.3268,1.3323,1.3312,1.3378,1.3312,1.3314,1.3315,0,1.2077,1.2173,1.2315,1.2437,1.2477,1.2548,1.2658,1.2738,1.2842,1.2885,1.2962,1.3013,1.3111,1.3103,1.324,1.3201,1.3255,1.3301,1.3306,1.3322,1.3311,1.3342,1.3402,1.3412,1.3333,1.3331,1.333,0,1.2077,1.2241,1.2347,1.2398,1.2544,1.2592,1.2654,1.2757,1.2821,1.2917,1.2959,1.3066,1.3124,1.3205,1.3284,1.327,1.3413,1.3412,1.3453,1.3451,1.3482,1.3479,1.3552,1.3513,1.3513,1.3513,1.3513,0,1.2144,1.2229,1.2349,1.2414,1.251,1.2593,1.2686,1.2753,1.2843,1.2923,1.2982,1.3055,1.3153,1.3239,1.33,1.3404,1.343,1.3468,1.3484,1.3464,1.346,1.3502,1.35,1.3516,1.3515,1.3515,1.3514,0,1.2161,1.2245,1.2364,1.2491,1.2525,1.2591,1.27,1.2765,1.2832,1.2932,1.296,1.3066,1.317,1.3255,1.3391,1.3432,1.3541,1.3559,1.3506,1.3515,1.3552,1.3547,1.3656,1.3675,1.3622,1.3622,1.3622,0,1.2199,1.2266,1.2399,1.2456,1.2518,1.261,1.2675,1.2758,1.2823,1.2946,1.2997,1.3104,1.3196,1.3359,1.3448,1.3552,1.3573,1.3604,1.3589,1.3567,1.3575,1.3571,1.3578,1.3606,1.3606,1.3606,1.3606,0,1.2259,1.2296,1.2388,1.2493,1.2569,1.2657,1.2746,1.2789,1.2888,1.2959,1.3065,1.3136,1.3274,1.3381,1.3494,1.356,1.36,1.3609,1.3625,1.3606,1.3574,1.3593,1.3511,1.3607,1.3607,1.3607,1.3607,1.3607,1.2289,1.235,1.2454,1.2553,1.2629,1.271,1.2778,1.2852,1.2943,1.3062,1.3105,1.3214,1.3316,1.3472,1.3537,1.3624,1.3629,1.3651,1.3657,1.3661,1.3659,1.3558,1.3645,1.3645,1.3645,1.3645,1.3646,0,1.2352,1.2421,1.2512,1.2634,1.2712,1.2741,1.2841,1.2904,1.3,1.3091,1.3178,1.3301,1.3404,1.35,1.3608,1.3659,1.368,1.3685,1.3683,1.3697,1.3648,1.3625,1.3666,1.3666,1.3666,1.3666,1.3666,1.3666,1.2395,1.25,1.255,1.2693,1.2762,1.2869,1.2924,1.2999,1.3072,1.3205,1.3291,1.3353,1.3446,1.3561,1.3657,1.3683,1.372,1.372,1.3751,1.3704,1.3701,1.3698,1.3676,1.3727,1.3727,1.3793,1.3793,1.3794]}]]